Weather History for KBLI - March, 2013

Change the Weather History Date:

Monday, March 18, 2013

  Actual Average Record
Temperature  
Mean Temperature 42 °F 45 °F  
Max Temperature 50 °F 53 °F 68 °F (1996)
Min Temperature 33 °F 37 °F 23 °F (2002)
Degree Days  
Heating Degree Days 23 20  
Month to date heating degree days 346 391  
Cooling Degree Days 0 0  
Month to date cooling degree days 0 0  
Year to date cooling degree days 0 0  
Moisture  
Dew Point 34 °F    
Average Humidity 67    
Maximum Humidity 92    
Minimum Humidity 42    
Precipitation  
Precipitation 0.12 in 0.10 in 0.51 in (1973)
Month to date precipitation 2.96 1.82  
Year to date precipitation 6.28 9.51  
Sea Level Pressure  
Sea Level Pressure 30.15 in    
Wind  
Wind Speed 8 mph (South)    
Max Wind Speed 22 mph    
Max Gust Speed 31 mph    
Visibility 10 miles    
Events Rain    
T = Trace of Precipitation, MM = Missing Value Source: NWS Daily Summary

Daily Weather History Graph

Daily Weather History Graph

Search for Another Location

Airport or City:

Trip Planner

Search our weather history database for the weather conditions in past years. The results will help you decide how hot, cold, wet, or windy it might be!

Date:

Astronomy

Mar. 18, 2013 Rise Set
Actual Time 7:16 AM PDT 7:20 PM PDT
Civil Twilight 6:45 AM PDT 7:52 PM PDT
Nautical Twilight 6:08 AM PDT 8:29 PM PDT
Astronomical Twilight 5:30 AM PDT 9:07 PM PDT
Moon 10:52 AM PDT (3/18) 1:52 AM PDT (3/18)
Length of Visible Light 13h 07m
Length of Day
12h 04m
Waxing Crescent, 41% of the Moon is Illuminated
Mar 18
Waxing Crescent
Mar 19
First Quarter
Mar 27
Full
Apr 2
Last Quarter
Apr 10
New

Hourly Weather History & Observations

Time (PDT) Temp. Windchill Dew Point Humidity Pressure Visibility Wind Dir Wind Speed Gust Speed Precip Events Conditions
12:53 AM 42.1 °F 37.7 °F 34.0 °F 73% 30.13 in 10.0 mi South 6.9 mph - N/A   Overcast
1:53 AM 41.0 °F 32.5 °F 37.0 °F 86% 30.10 in 10.0 mi South 17.3 mph 23.0 mph 0.00 in Rain Light Rain
2:53 AM 39.0 °F 28.8 °F 36.0 °F 89% 30.10 in 10.0 mi South 21.9 mph 31.1 mph 0.01 in Rain Light Rain
3:53 AM 39.2 °F 30.2 °F 35.6 °F 87% 30.06 in 7.0 mi SSE 17.3 mph 25.3 mph N/A Rain Light Rain
4:53 AM 39.0 °F 30.6 °F 35.1 °F 86% 30.08 in 8.0 mi SSE 15.0 mph 26.5 mph 0.04 in Rain Light Rain
5:29 AM 39.2 °F 29.3 °F 35.6 °F 87% 30.05 in 10.0 mi SSE 20.7 mph 27.6 mph 0.01 in   Overcast
5:45 AM 39.2 °F 29.6 °F 35.6 °F 87% 30.04 in 10.0 mi SSE 19.6 mph 25.3 mph 0.01 in   Overcast
5:53 AM 39.9 °F 30.2 °F 36.0 °F 86% 30.07 in 10.0 mi SSE 20.7 mph 27.6 mph 0.01 in   Overcast
6:06 AM 39.2 °F 32.0 °F 35.6 °F 87% 30.04 in 10.0 mi SSE 11.5 mph 27.6 mph N/A   Overcast
6:53 AM 39.9 °F 33.4 °F 37.0 °F 89% 30.08 in 10.0 mi South 10.4 mph 23.0 mph N/A   Overcast
7:46 AM 42.8 °F 38.0 °F 37.4 °F 81% 30.08 in 10.0 mi South 8.1 mph - N/A   Overcast
7:53 AM 42.1 °F 39.2 °F 37.0 °F 82% 30.10 in 10.0 mi SSW 4.6 mph - N/A   Overcast
8:07 AM 42.8 °F 40.1 °F 35.6 °F 76% 30.08 in 10.0 mi Variable 4.6 mph - N/A   Overcast
8:53 AM 42.1 °F 40.2 °F 36.0 °F 79% 30.13 in 10.0 mi Variable 3.5 mph - N/A   Mostly Cloudy
9:04 AM 42.8 °F 39.3 °F 35.6 °F 76% 30.11 in 10.0 mi Variable 5.8 mph - 0.00 in Rain Light Rain
9:53 AM 43.0 °F 39.5 °F 36.0 °F 76% 30.15 in 10.0 mi SW 5.8 mph - 0.00 in   Overcast
10:00 AM 44.6 °F 42.2 °F 37.4 °F 76% 30.12 in 10.0 mi WSW 4.6 mph - N/A   Mostly Cloudy
10:53 AM 44.1 °F 39.0 °F 36.0 °F 73% 30.17 in 10.0 mi West 9.2 mph - N/A   Overcast
11:53 AM 45.0 °F 41.8 °F 32.0 °F 60% 30.19 in 10.0 mi WSW 5.8 mph - N/A   Scattered Clouds
12:53 PM 46.0 °F 42.5 °F 28.9 °F 51% 30.19 in 10.0 mi Variable 6.9 mph - N/A   Scattered Clouds
1:53 PM 48.0 °F - 26.1 °F 42% 30.21 in 10.0 mi Variable 5.8 mph - N/A   Clear
2:53 PM 48.0 °F - 28.9 °F 48% 30.21 in 10.0 mi South 8.1 mph - N/A   Scattered Clouds
3:53 PM 48.9 °F - 27.0 °F 43% 30.22 in 10.0 mi SSE 10.4 mph - N/A   Mostly Cloudy
4:53 PM 48.0 °F - 32.0 °F 54% 30.23 in 10.0 mi South 9.2 mph - N/A   Overcast
5:53 PM 46.9 °F - 30.9 °F 54% 30.23 in 10.0 mi Variable 3.5 mph - N/A   Scattered Clouds
6:53 PM 46.9 °F - 30.9 °F 54% 30.23 in 10.0 mi SSE 3.5 mph - N/A   Partly Cloudy
7:53 PM 43.0 °F 40.3 °F 32.0 °F 65% 30.24 in 10.0 mi SSE 4.6 mph - N/A   Clear
8:53 PM 42.1 °F - 30.9 °F 65% 30.26 in 10.0 mi Calm Calm - N/A   Clear
9:53 PM 37.9 °F - 30.9 °F 76% 30.26 in 10.0 mi Calm Calm - N/A   Clear
10:53 PM 39.0 °F 36.8 °F 30.9 °F 73% 30.26 in 10.0 mi SSE 3.5 mph - N/A   Clear
11:53 PM 37.0 °F 34.5 °F 30.0 °F 76% 30.27 in 10.0 mi ESE 3.5 mph - N/A   Clear